User: anonymous   Login
Location: Unspecified
(0.0000°N, 0.0000°E)
Time: 23:14:22
(UTC+00:00)
Language:

METEOR-M - Orbit

View from above orbital plane
View from above orbital plane
View from above satellite
View from above satellite

Ground track
Ground track

The orbit data is extracted from the following two-line orbital elements,

1 35865U 09049A   21125.72483572  .00000011  00000-0  23611-4 0  9997
2 35865  98.4766 105.6688 0002129   4.6394 355.4804 14.22272044603728
Epoch (UTC): 05 May 2021 17:23:45
Eccentricity: 0.0002129
inclination: 98.4766°
perigee height: 816 km
apogee height: 819 km
right ascension of ascending node: 105.6688°
argument of perigee: 4.6394°
revolutions per day: 14.22272044
mean anomaly at epoch: 355.4804°
orbit number at epoch: 60372

The dashed part of the orbit path shows where the satellite is in the earth's shadow,  

DLR